This is an optional block. Switch it on/off in your settings-file: $SITE['bannerTop'] = false; or $SITE['bannerBottom'] = false;

You can display ads, any other important text or photo’s using text / html or PHP code.

You can place one or more at the top and or bottom and it can all be different for content / size .



Lozoyuela more information Lozoyuela


Meteosat more information blitzortung!


Radar lluvias more information rain snow radar



Pagina Historial Weather Underground texto

Diario Resumen Septiembre 22, 2018 Unidades:  Métrico    impérial   Tanto
« Anterior Dia
Siguiente Dia »
Diario Semana Mensual Anual Personalizada
  Actual: Alto: Baja: Media:
Temperatura: -9 °C -17.8 °C -9.1 °C -8.1 °C
Punto de rocío: -12.7 °C -17.8 °C -12.7 °C -12.6 °C
Humedad: 65 % Humidity % 51 % 57 %
Velocidad del Viento: 0 km/h 0 km/h 0 km/h 0.6 km/h
Ráfagas de viento: 0 km/h 0 km/h - -
Viento:Calm - - SSW
Pression baro: 34537.2 hPa 0 hPa 34506.7 hPa -
Précipitaciones: 0 mm      
Historical Graphs
 
 
Datos de tabla para Septiembre 22, 2018
Tiempo Temperatura Punto de rocío Pression baro Viento Velocidad del Viento Ráfagas de viento Humedad Las precipitaciones Rate ( Hora )
-17.8 °C -17.8 °C 0 hPa Calm     Humidity % 0 mm
00:04 -6.6 °C -12.4 °C 34513.5 hPa Calm     51 % 0 mm
00:09 -6.7 °C -12.4 °C 34510.1 hPa Calm     52 % 0 mm
00:14 -6.8 °C -12.3 °C 34513.5 hPa Calm     53 % 0 mm
00:19 -6.9 °C -12.4 °C 34513.5 hPa Calm     53 % 0 mm
00:24 -7.1 °C -12.3 °C 34513.5 hPa ESE 6 km/h 0.8 km/h 54 % 0 mm
00:29 -7.1 °C -12.4 °C 34513.5 hPa West 3.1 km/h   54 % 0 mm
00:34 -7.2 °C -12.4 °C 34513.5 hPa Calm     55 % 0 mm
00:39 -7.3 °C -12.4 °C 34513.5 hPa Calm     55 % 0 mm
00:44 -7.2 °C -12.6 °C 34510.1 hPa Calm     54 % 0 mm
00:49 -7.1 °C -12.4 °C 34510.1 hPa Calm     54 % 0 mm
00:54 -7 °C -12.4 °C 34513.5 hPa Calm     53 % 0 mm
00:59 -7 °C -12.4 °C 34513.5 hPa Calm     53 % 0 mm
01:04 -7.1 °C -12.5 °C 34513.5 hPa SE 3.1 km/h   53 % 0 mm
01:09 -6.9 °C -12.6 °C 34506.7 hPa NNW 9 km/h 3.7 km/h 52 % 0 mm
01:14 -6.6 °C -12.4 °C 34513.5 hPa SE 9 km/h 3.4 km/h 51 % 0 mm
01:19 -6.6 °C -12.4 °C 34513.5 hPa Calm     51 % 0 mm
01:24 -6.7 °C -12.4 °C 34513.5 hPa Calm     52 % 0 mm
01:29 -6.9 °C -12.6 °C 34516.9 hPa Calm     52 % 0 mm
01:34 -7.1 °C -12.5 °C 34516.9 hPa Calm     53 % 0 mm
01:39 -7.2 °C -12.4 °C 34513.5 hPa Calm     54 % 0 mm
01:44 -7.3 °C -12.6 °C 34513.5 hPa Calm     54 % 0 mm
01:49 -7.3 °C -12.4 °C 34513.5 hPa Calm     55 % 0 mm
01:54 -7.5 °C -12.4 °C 34513.5 hPa Calm     56 % 0 mm
01:59 -7.6 °C -12.5 °C 34516.9 hPa Calm     56 % 0 mm
02:04 -7.6 °C -12.4 °C 34516.9 hPa Calm     57 % 0 mm
02:09 -7.7 °C -12.6 °C 34516.9 hPa Calm     57 % 0 mm
02:14 -7.8 °C -12.4 °C 34516.9 hPa Calm     58 % 0 mm
02:19 -7.9 °C -12.6 °C 34516.9 hPa Calm     58 % 0 mm
02:24 -7.9 °C -12.6 °C 34520.3 hPa Calm     58 % 0 mm
02:29 -8 °C -12.6 °C 34520.3 hPa Calm     59 % 0 mm
02:34 -8 °C -12.6 °C 34520.3 hPa Calm     59 % 0 mm
02:39 -8 °C -12.6 °C 34523.7 hPa Calm     59 % 0 mm
02:44 -8.2 °C -12.5 °C 34523.7 hPa Calm     60 % 0 mm
02:49 -8.2 °C -12.6 °C 34527 hPa Calm     60 % 0 mm
02:54 -8.4 °C -12.4 °C 34530.4 hPa Calm     62 % 0 mm
02:59 -8.7 °C -12.6 °C 34530.4 hPa Calm     63 % 0 mm
03:04 -8.9 °C -12.6 °C 34533.8 hPa Calm     65 % 0 mm
03:09 -9.1 °C -12.6 °C 34530.4 hPa Calm     66 % 0 mm
03:14 -9.1 °C -12.6 °C 34530.4 hPa Calm     66 % 0 mm
03:19 -9.1 °C -12.6 °C 34530.4 hPa Calm     66 % 0 mm
03:24 -9.1 °C -12.4 °C 34530.4 hPa Calm     67 % 0 mm
03:29 -8.9 °C -12.4 °C 34530.4 hPa Calm     66 % 0 mm
03:34 -8.9 °C -12.4 °C 34533.8 hPa Calm     66 % 0 mm
03:39 -8.9 °C -12.4 °C 34530.4 hPa Calm     66 % 0 mm
03:44 -8.9 °C -12.4 °C 34530.4 hPa Calm     66 % 0 mm
03:49 -8.8 °C -12.6 °C 34533.8 hPa Calm     65 % 0 mm
03:54 -8.9 °C -12.4 °C 34537.2 hPa Calm     66 % 0 mm
03:59 -9 °C -12.5 °C 34533.8 hPa Calm     66 % 0 mm
04:04 -9.1 °C -12.6 °C 34537.2 hPa Calm     66 % 0 mm
04:09 -9.1 °C -12.6 °C 34540.6 hPa Calm     66 % 0 mm
04:14 -9 °C -12.7 °C 34537.2 hPa Calm     65 % 0 mm
Lozoyuela
Elogios de Weather Underground - 2 mb

Guión original por  Jim McMurry - jmcmurry@mwt.net Adaptado para la plantilla por  Wim van der Kuil - Leuven-Template.eu

Usted encontrará nuestra información del tiempo también en:

UK Metoffice

Weather Underground

Equipo utilizado:

Weather-station
Davis VP2

Weather-program
Weather Display

Weather-server
My Computer

Proveedor
My provider

Davis VP2

Weather Display

My Computer

My provider